IW5EFR Vecchia di Pontedera IT current weather conditions

sailwx.info

Wind from 332 at 4 knots gusting 6

Air temperature 17.8° C
Dewpoint 17.0° C

Last reported at 2014-Jul-29 23:26 UTC.
Time now 2014-Jul-30 07:02 UTC

Location: N 43°37' E 010°38'.
View on Google Maps.

See reports from other nearby stations

  
Tides and Currents Weather Stations Pressure Air Temp Water Temp Dewpoint Dewpoint Depression Visibility Wind Speed Wind Dir Waves Ship Positions
date/time (UTC)wind fromknots sea level pressurealtimeterstation pressurevisibilityair tempwater tempwave heightnotes
2014-Jul-29 23:26 332 4 gusting 6 17.8
2014-Jul-29 23:15 289 2 gusting 3 17.8
2014-Jul-29 23:04 325 2 gusting 2 18.3
2014-Jul-29 22:53 328 18.3
2014-Jul-29 22:42 328 2 gusting 4 18.3
2014-Jul-29 22:20 304 0 gusting 4 18.9
2014-Jul-29 22:09 303 0 gusting 2 18.9
2014-Jul-29 21:58 303 1 gusting 3 18.9
2014-Jul-29 21:47 303 0 gusting 3 18.9
2014-Jul-29 21:36 303 18.9
2014-Jul-29 21:25 302 1 gusting 5 18.9
2014-Jul-29 21:14 315 2 gusting 3 18.9
2014-Jul-29 21:03 050 1 gusting 2 19.4
2014-Jul-29 20:52 096 19.4
2014-Jul-29 20:41 098 19.4
2014-Jul-29 20:30 098 19.4
2014-Jul-29 20:19 098 19.4
2014-Jul-29 20:08 098 19.4
2014-Jul-29 19:57 098 19.4
2014-Jul-29 19:46 098 19.4
2014-Jul-29 19:35 098 19.4
2014-Jul-29 19:13 081 1 20.0
2014-Jul-29 19:02 049 20.0
2014-Jul-29 18:51 049 20.0
2014-Jul-29 18:40 132 1 20.0
2014-Jul-29 18:29 159 20.0
2014-Jul-29 18:18 159 20.0
2014-Jul-29 18:07 159 20.0
2014-Jul-29 17:56 159 2 gusting 5 20.6
2014-Jul-29 17:45 162 2 gusting 5 20.6
2014-Jul-29 17:34 163 2 gusting 8 20.6
2014-Jul-29 17:23 134 2 gusting 5 20.6
2014-Jul-29 17:12 158 4 gusting 5 20.6
2014-Jul-29 17:01 164 4 gusting 4 20.6
2014-Jul-29 16:50 178 1 gusting 3 21.1
2014-Jul-29 16:39 159 2 gusting 2 21.1
2014-Jul-29 16:28 157 21.1
2014-Jul-29 16:06 157 0 gusting 4 21.1
2014-Jul-29 15:55 142 20.6
2014-Jul-29 15:44 142 20.6
2014-Jul-29 15:33 140 1 gusting 5 21.1
2014-Jul-29 15:22 166 20.6
2014-Jul-29 15:11 166 1 gusting 5 20.6
2014-Jul-29 15:00 182 2 gusting 1 21.1
2014-Jul-29 14:38 270 20.6
2014-Jul-29 14:27 270 20.6
2014-Jul-29 14:16 270 20.6
2014-Jul-29 13:54 306 1 gusting 5 20.6
2014-Jul-29 13:43 269 3 gusting 6 20.6
2014-Jul-29 13:21 292 0 gusting 6 21.1
2014-Jul-29 13:10 284 1 gusting 6 21.7
2014-Jul-29 12:59 284 0 gusting 8 21.7
2014-Jul-29 12:48 287 1 gusting 6 21.1
2014-Jul-29 12:37 271 2 gusting 7 20.6
2014-Jul-29 12:26 290 2 gusting 6 20.6
2014-Jul-29 11:42 308 5 gusting 14 20.6
2014-Jul-29 11:31 355 13 gusting 11 20.6
2014-Jul-29 11:20 317 6 gusting 12 20.6
2014-Jul-29 11:09 303 4 gusting 12 21.1
2014-Jul-29 10:58 313 4 gusting 9 22.2
2014-Jul-29 10:47 292 7 gusting 5 23.3
2014-Jul-29 10:37 005 0 gusting 5 23.3
2014-Jul-29 10:25 009 23.3
2014-Jul-29 09:52 150 7 gusting 7 23.9
2014-Jul-29 09:41 174 4 gusting 8 23.9
2014-Jul-29 09:30 186 1 gusting 8 23.9
2014-Jul-29 09:19 166 4 gusting 8 23.3
2014-Jul-29 09:08 169 5 gusting 6 23.3
2014-Jul-29 08:57 121 4 gusting 6 22.8
2014-Jul-29 08:46 171 2 gusting 7 22.8
2014-Jul-29 08:24 159 4 gusting 6 22.8
2014-Jul-29 08:13 175 23.3
2014-Jul-29 08:02 175 23.9
2014-Jul-29 07:51 259 23.3
2014-Jul-29 07:41 267 23.3
2014-Jul-29 07:30 268 1 gusting 5 23.3
2014-Jul-29 07:19 264 3 gusting 4 22.8
2014-Jul-28 18:07 251 5 gusting 6 25.0
2014-Jul-28 17:56 262 1 gusting 6 25.6
2014-Jul-28 17:12 267 5 gusting 9 26.7
2014-Jul-28 17:01 250 4 gusting 9 27.2
2014-Jul-28 16:50 248 27.2
2014-Jul-28 16:39 265 0 gusting 9 27.2
2014-Jul-28 16:06 302 7 gusting 11 27.8
2014-Jul-28 15:55 263 7 gusting 12 28.3
2014-Jul-28 15:44 286 5 gusting 12 28.3
2014-Jul-28 15:11 280 6 gusting 9 28.9
2014-Jul-28 15:00 284 3 gusting 12 28.9
2014-Jul-28 14:38 317 3 gusting 10 28.9
2014-Jul-28 14:16 291 6 gusting 11 28.3
2014-Jul-28 13:43 305 6 gusting 12 29.4
2014-Jul-28 13:33 268 4 gusting 9 29.4
2014-Jul-28 13:10 259 3 gusting 11 29.4
2014-Jul-28 12:59 279 7 gusting 8 29.4
2014-Jul-28 12:37 271 2 gusting 10 28.9
2014-Jul-28 12:26 252 3 gusting 7 28.9
2014-Jul-28 12:15 263 1 gusting 9 28.9
2014-Jul-28 11:53 279 1 gusting 8 28.9
2014-Jul-28 11:42 263 1 gusting 9 28.9
2014-Jul-28 11:31 202 2 gusting 7 28.3
2014-Jul-28 11:20 203 4 gusting 6 28.3
2014-Jul-28 11:09 257 5 gusting 8 28.3
2014-Jul-28 10:47 314 2 gusting 6 27.8
2014-Jul-28 10:36 258 3 gusting 7 27.2
2014-Jul-28 10:14 355 4 gusting 6 27.2
2014-Jul-28 10:03 277 27.2
2014-Jul-28 09:52 228 0 gusting 6 27.2
2014-Jul-28 09:30 327 26.7
2014-Jul-28 09:20 267 0 gusting 4 26.7
2014-Jul-28 08:57 005 3 gusting 6 26.1
2014-Jul-28 08:36 330 3 gusting 6 25.0
2014-Jul-28 08:13 317 3 gusting 5 25.0
2014-Jul-28 07:18 096 23.3
2014-Jul-28 07:07 090 22.8